Regional Weather Roundup
Issued by NWS Charleston, WV

Home | Current Version | Previous Version | Graphics & Text | Print | Product List | Glossary On
Versions: 1 2 3 4 5 6 7 8 9 10 11 12 13 14 15 16 17 18 19 20 21 22 23 24 25 26 27 28 29 30 31 32 33 34 35 36 37 38 39 40 41 42 43 44 45 46 47 48 49 50
000
ASUS41 KRLX 030910
RWRRLX
West Virginia Regional Weather Roundup
National Weather Service Charleston WV
400 AM EST SAT DEC 03 2016

Note: "fair" indicates few or no clouds below 12,000 feet with no
significant weather and/or obstructions to visibility.

WVZ003-031000-
Northern Panhandle of West Virginia

CITY           SKY/WX    TMP DP  RH WIND       PRES   REMARKS
WHEELING       CLOUDY    33  26  75 W8        30.25R
$$

WVZ009-031000-
Northwest West Virginia

CITY           SKY/WX    TMP DP  RH WIND       PRES   REMARKS
PARKERSBURG    CLOUDY    37  31  78 W6        30.32R
$$

WVZ006-031000-
Western West Virginia

CITY           SKY/WX    TMP DP  RH WIND       PRES   REMARKS
HUNTINGTON     CLOUDY    39  28  64 CALM      30.32R
$$

WVZ015-031000-
West Central West Virginia

CITY           SKY/WX    TMP DP  RH WIND       PRES   REMARKS
CHARLESTON     CLOUDY    37  29  72 W5        30.30S
$$

WVZ022-031-031000-
North Central West Virginia

CITY           SKY/WX    TMP DP  RH WIND       PRES   REMARKS
CLARKSBURG     NOT AVBL
MORGANTOWN     CLOUDY    38  29  70 W3        30.25R
$$

WVZ025-035-042-045-031000-
Southern West Virginia

CITY           SKY/WX    TMP DP  RH WIND       PRES   REMARKS
BECKLEY        CLOUDY    32  24  72 NW10      30.23S
LOGAN          NOT AVBL
BLUEFIELD      CLOUDY    29  24  82 NW8G23    30.23S
LEWISBURG      CLOUDY    32  24  72 NW12      30.21S
$$

WVZ047-031000-
Northern Mountains of West Virginia

CITY           SKY/WX    TMP DP  RH WIND       PRES   REMARKS
ELKINS         NOT AVBL
$$

WVZ052-031000-
Eastern Panhandle of West Virginia

CITY           SKY/WX    TMP DP  RH WIND       PRES   REMARKS
MARTINSBURG    CLOUDY    42  26  53 W9G18     30.14S
PETERSBURG     CLOUDY    41  29  64 N7        30.20S
$$




USA.gov is the U.S. government's official web portal to all federal, state and local government web resources and services.